Starlink 4404

operational
NORAD ID: 53195 Int'l Des: 2022-084 Owner: SPXS Country: US Constellation: starlink
LEOCIRCULARRETROGRADE

Über Starlink 4404

Beschreibung wird geladen...

Live-Position

3D-Globus wird geladen...

Nächste Überflüge

Höhenverlauf

Altitude vs Time

uPlot chart will show altitude changes over time

Zweizeiliger Elementsatz

1 53195U 22084G 25299.48850087 .00002679 00000-0 15988-4 0 9995
2 53195 97.6497 6.2027 0001390 350.5004 9.6236 15.79058521180293
Epoch: 26. Okt. 2025 • Age: 6 hours

Aktueller Status

Höhe 340.2 km
Geschwindigkeit 7.70 km/s
Subsatellitenpunkt -20.64°S, 68.21°E
Startdatum 22. Juli 2022
Alter 3.2 years
Typ internet

Technische Details

Klassifizierung Payload
Masse 297.00 kg
Trockenmasse 275.00 kg
Gesamtmasse 297.00 kg
Länge 0.20 m
Durchmesser 2.80 m
Spannweite 9.00 m
Form Box + pan
Hersteller SPXS
Bus-Typ Starlink
Phasenstatus In Orbit
Besitzer/Staat SPXS/US

Große Konstellationen

Loading constellations...